Volver al catálogo

BREEZE-M DEB

LostHEO
NORAD 38613·DEBRIS·🇷🇺 Russia

Lanzado Mar 14, 2008 desde Baikonur Cosmodrome

Loading…

Próximos Pases (próximas 24 horas)

TLE

ObsoletoSource: Space-Track

Época: May 3, 2026, 02:55 UTC

1 38613U 08011BL  26123.12160326  .00008294  00000-0  50195-2 0  9991
2 38613  48.9129 345.3259 6258429 231.1621  54.2629  3.60772400  3368

Sigue BREEZE-M DEB en tiempo real con AllMySat

Download on the App Store